Regional Weather Roundup
Issued by NWS Sioux Falls, SD

Home | Current Version | Previous Version | Text Only | Print | Product List | Glossary On
Versions: 1 2 3 4 5 6 7 8 9 10 11 12 13 14 15 16 17 18 19 20 21 22 23 24 25 26 27 28 29 30 31 32 33 34 35 36 37 38 39 40 41 42 43 44 45 46 47 48 49 50
000
ASUS43 KFSD 191510
RWRFSD

WEATHER ROUNDUP FOR SE SOUTH DAKOTA/SW MINNESOTA/NW IOWA
NATIONAL WEATHER SERVICE SIOUX FALLS SD
1000 AM CDT SAT APR 19 2014

NOTE: "FAIR" INDICATES FEW OR NO CLOUDS BELOW 12,000 FEET WITH NO
SIGNIFICANT WEATHER AND OR OBSTRUCTIONS TO VISIBILITY.


SDZ038>040-050-052>070-191600-
SOUTHEAST SOUTH DAKOTA

CITY           SKY/WX    TMP DP  RH WIND       PRES   REMARKS
CHAMBERLAIN      N/A     54  36  50 NW10      30.01R
HURON          CLOUDY    54  38  54 W15       29.98R
MADISON        FAIR      57  43  58 SW15G23   29.94R
MITCHELL       CLOUDY    56  41  57 NW13      29.99R
SIOUX FALLS    MOSUNNY   61  42  49 S18G25    29.96S
WINNER         FAIR      55  33  43 NW16      30.01R
YANKTON        MOSUNNY   63  45  51 SW17      29.99R
$$

MNZ071-072-080-081-089-090-097-098-191600-
SOUTHWEST MINNESOTA

CITY           SKY/WX    TMP DP  RH WIND       PRES   REMARKS
FAIRMONT       CLOUDY    54  36  50 S28G33    30.06S
JACKSON        PTSUNNY   59  37  44 S23G32    30.02F
LUVERNE        MOSUNNY   61  41  48 S26G35    29.98S
MARSHALL       CLOUDY    57  43  58 SW23G30   29.95R
MONTEVIDEO     CLOUDY    54  45  71 SW13      29.96R
PIPESTONE      PTSUNNY   59  43  55 SW24G32   29.96R
REDWOOD FALLS  CLOUDY    54  39  57 S23       29.98F
TRACY          PTSUNNY   58  43  57 S20G30    29.97R
WINDOM         PTSUNNY   59  39  47 S22G31    29.98F
WORTHINGTON    MOSUNNY   61  39  44 S22G36    30.00S
$$

IAZ001>003-012>014-020>022-031-032-NEZ013-014-SDZ071-191600-
NORTHWEST IOWA

CITY           SKY/WX    TMP DP  RH WIND       PRES   REMARKS
CHEROKEE       PTSUNNY   63  42  45 S20G28    30.04F
DENISON        MOSUNNY   64  41  42 S21G28    30.07S
ESTHERVILLE    PTSUNNY   58  39  49 S31G38    30.03F
LE MARS        MOSUNNY   63  43  48 S25G32    30.00R
ORANGE CITY    MOSUNNY   64  43  45 S29G35    30.00S
SHELDON        MOSUNNY   63  43  48 S25G33    29.99S
SIOUX CITY     PTSUNNY   64  44  48 S17G25    30.02F
SPENCER        PTSUNNY   60  41  49 S30G36    30.02F
STORM LAKE     PTSUNNY   63  41  45 S26G35    30.05F
$$

ABBREVIATIONS USED IN REMARKS
   TC - TEMPERATURE IN CELSIUS
  WCI - WIND CHILL INDEX
   HX - HEAT INDEX
  VSB - VISIBILITY




USA.gov is the U.S. government's official web portal to all federal, state and local government web resources and services.